Location: Unspecified
(0.0000°N, 0.0000°E)
Time: 10:00:41
(UTC+00:00)

MIDAS 4 DEB - Pass Details

Date: 10 November 2025
Orbit: 3306 x 3926 km, 95.8° (Epoch: 14 April)

Event Time Altitude Azimuth Distance (km) Brightness Sun altitude
Exits shadow 23:48:46 12° 276° (W) 6,495 ? -72.5°
Drops below altitude 10° 23:52:22 10° 264° (W) 6,709 ? -72.5°
Sets 00:02:33 0° 237° (WSW) 7,890 ? -72.0°
